Pittsburgh, PA

12:10 AM EDT on October 01, 2016 (GMT -0400)
Pittsburgh International

Weather History for KPIT - May, 2014

Change the Weather History Date:

Sunday, May 11, 2014

  Actual Average Record
Temperature  
Mean Temperature 65 °F 59 °F  
Max Temperature 75 °F 70 °F 90 °F (1896)
Min Temperature 55 °F 48 °F 30 °F (1966)
Degree Days  
Heating Degree Days 0 7  
Month to date heating degree days 77 93  
Since 1 July heating degree days 5935 5569  
Cooling Degree Days 0 1  
Month to date cooling degree days 11 10  
Year to date cooling degree days 21 20  
Growing Degree Days 15 (Base 50)    
Moisture  
Dew Point 54 °F    
Average Humidity 71    
Maximum Humidity 100    
Minimum Humidity 41    
Precipitation  
Precipitation 0.00 in 0.13 in 2.27 in (1889)
Month to date precipitation 0.55 1.25  
Year to date precipitation 11.32 12.40  
Snow  
Snow 0.00 in 0.00 in T in (1969)
Month to date snowfall 0.0 0.0  
Since 1 July snowfall 63.4 41.9  
Snow Depth 0.00 in    
Sea Level Pressure  
Sea Level Pressure 30.10 in    
Wind  
Wind Speed 4 mph (SW)    
Max Wind Speed 13 mph    
Max Gust Speed 17 mph    
Visibility 7 miles    
Events Fog    
T = Trace of Precipitation, MM = Missing Value Source: NWS Daily Summary

Daily Weather History Graph

Daily Weather History Graph

Search for Another Location

Airport or City:

Trip Planner

Search our weather history database for the weather conditions in past years. The results will help you decide how hot, cold, wet, or windy it might be!

Date:

Astronomy

May. 11, 2014 Rise Set
Actual Time 6:08 AM EDT 8:26 PM EDT
Civil Twilight 5:37 AM EDT 8:57 PM EDT
Nautical Twilight 5:00 AM EDT 9:35 PM EDT
Astronomical Twilight 4:18 AM EDT 10:16 PM EDT
Moon 5:20 PM EDT (5/11) 4:13 AM EDT (5/11)
Length of Visible Light 15h 19m
Length of Day
14h 18m
Waxing Gibbous, 89% of the Moon is Illuminated
May 11
Waxing Gibbous
May 14
Full
May 21
Last Quarter
May 28
New
Jun 5
First Quarter

Hourly Weather History & Observations

Time (EDT) Temp. Dew Point Humidity Pressure Visibility Wind Dir Wind Speed Gust Speed Precip Events Conditions
12:23 AM 57.9 °F 57.0 °F 97% 30.02 in 0.5 mi WSW 4.6 mph - N/A   Mostly Cloudy
12:51 AM 57.2 °F 57.2 °F 100% 30.03 in 0.1 mi West 3.5 mph - N/A Fog Fog
12:55 AM 57.0 °F 57.0 °F 100% 30.02 in 0.1 mi SW 3.5 mph - N/A Fog Fog
1:51 AM 57.2 °F 57.2 °F 100% 30.02 in 0.1 mi Calm Calm - N/A Fog Fog
2:26 AM 57.0 °F 55.9 °F 96% 30.04 in 0.1 mi Calm Calm - N/A Fog Fog
2:51 AM 55.9 °F 55.0 °F 97% 30.05 in 0.1 mi WSW 6.9 mph - N/A Fog Fog
3:22 AM 55.9 °F 55.9 °F 100% 30.04 in 0.1 mi WSW 8.1 mph - N/A   Overcast
3:34 AM 57.0 °F 55.9 °F 96% 30.04 in 3.0 mi West 8.1 mph - N/A   Overcast
3:51 AM 55.9 °F 55.9 °F 100% 30.06 in 4.0 mi West 5.8 mph - N/A   Overcast
4:51 AM 55.4 °F 55.4 °F 100% 30.06 in 5.0 mi West 4.6 mph - N/A   Overcast
5:51 AM 57.0 °F 55.0 °F 93% 30.10 in 6.0 mi WSW 8.1 mph - N/A   Overcast
6:51 AM 57.0 °F 54.0 °F 89% 30.13 in 5.0 mi West 4.6 mph - N/A   Overcast
7:51 AM 57.0 °F 54.0 °F 89% 30.15 in 6.0 mi WSW 5.8 mph - N/A   Mostly Cloudy
8:31 AM 57.9 °F 54.0 °F 87% 30.13 in 7.0 mi WSW 4.6 mph - N/A   Mostly Cloudy
8:51 AM 59.0 °F 54.0 °F 83% 30.16 in 8.0 mi SW 4.6 mph - N/A   Mostly Cloudy
9:51 AM 61.0 °F 55.0 °F 81% 30.17 in 10.0 mi South 4.6 mph - N/A   Mostly Cloudy
10:51 AM 63.0 °F 55.0 °F 75% 30.17 in 10.0 mi SSW 6.9 mph - N/A   Mostly Cloudy
11:51 AM 66.0 °F 55.9 °F 70% 30.17 in 10.0 mi Variable 4.6 mph - N/A   Mostly Cloudy
12:51 PM 68.0 °F 53.1 °F 59% 30.17 in 10.0 mi Variable 5.8 mph - N/A   Overcast
1:51 PM 72.0 °F 50.0 °F 46% 30.15 in 10.0 mi West 8.1 mph 17.3 mph N/A   Mostly Cloudy
2:51 PM 72.0 °F 48.9 °F 44% 30.13 in 10.0 mi SSW 4.6 mph - N/A   Mostly Cloudy
3:51 PM 73.0 °F 50.0 °F 44% 30.11 in 10.0 mi SSW 8.1 mph - N/A   Mostly Cloudy
4:51 PM 73.0 °F 48.9 °F 42% 30.10 in 10.0 mi SSW 8.1 mph - N/A   Mostly Cloudy
5:51 PM 73.0 °F 50.0 °F 44% 30.10 in 10.0 mi SW 6.9 mph - N/A   Overcast
6:51 PM 73.0 °F 50.0 °F 44% 30.09 in 10.0 mi South 3.5 mph - N/A   Mostly Cloudy
7:51 PM 73.0 °F 52.0 °F 48% 30.09 in 10.0 mi Calm Calm - N/A   Scattered Clouds
8:51 PM 69.1 °F 55.0 °F 61% 30.09 in 10.0 mi Calm Calm - N/A   Scattered Clouds
9:51 PM 68.0 °F 54.0 °F 61% 30.11 in 10.0 mi Calm Calm - N/A   Scattered Clouds
10:51 PM 66.0 °F 54.0 °F 65% 30.12 in 10.0 mi Calm Calm - N/A   Mostly Cloudy
11:51 PM 64.0 °F 55.0 °F 73% 30.11 in 10.0 mi Calm Calm - N/A   Overcast